Casper, WY

3:45 AM MDT on May 23, 2018 (GMT -0600)
Natrona County International

Weather History for KCPR - December, 2012

Change the Weather History Date:

Sunday, December 16, 2012

  Actual Average Record
Temperature  
Mean Temperature 26 °F 23 °F  
Max Temperature 37 °F 33 °F 59 °F (1980)
Min Temperature 15 °F 13 °F -31 °F (1964)
Degree Days  
Heating Degree Days 39 42  
Month to date heating degree days 524 653  
Since 1 July heating degree days 2058 2507  
Cooling Degree Days 0 0  
Month to date cooling degree days 0 0  
Year to date cooling degree days 697 422  
Moisture  
Dew Point 10 °F    
Average Humidity 53    
Maximum Humidity 81    
Minimum Humidity 25    
Precipitation  
Precipitation 0.00 in 0.02 in 0.36 in (2016)
Month to date precipitation 0.08 0.26  
Year to date precipitation 7.57 12.29  
Snow  
Snow 0.00 in 0.40 in - ()
Month to date snowfall T 5.8  
Since 1 July snowfall 12.7 25.3  
Snow Depth -    
Sea Level Pressure  
Sea Level Pressure 29.73 in    
Wind  
Wind Speed 15 mph (WSW)    
Max Wind Speed 26 mph    
Max Gust Speed 33 mph    
Visibility 10 miles    
Events      
T = Trace of Precipitation, MM = Missing Value Source: NWS Daily Summary

Daily Weather History Graph

Daily Weather History Graph

Search for Another Location

Airport or City:

Astronomy

Dec. 16, 2012 Rise Set
Actual Time 7:30 AM MST 4:32 PM MST
Civil Twilight 6:58 AM MST 5:04 PM MST
Nautical Twilight 6:22 AM MST 5:40 PM MST
Astronomical Twilight 5:48 AM MST 6:15 PM MST
Moon 10:01 AM MST (12/16) 8:55 PM MST (12/16)
Length of Visible Light 10h 06m
Length of Day
9h 01m
Waxing Crescent, 16% of the Moon is Illuminated
Dec 16
Waxing Crescent
Dec 19
First Quarter
Dec 28
Full
Jan 4
Last Quarter
Jan 11
New

Hourly Weather History & Observations

Time (MST) Temp. Windchill Dew Point Humidity Pressure Visibility Wind Dir Wind Speed Gust Speed Precip Events Conditions
12:53 AM 26.1 °F 12.7 °F 18.0 °F 71% 29.69 in 10.0 mi SW 18.4 mph - N/A   Clear
1:53 AM 26.1 °F 12.7 °F 17.1 °F 69% 29.67 in 10.0 mi SW 18.4 mph 26.5 mph N/A   Clear
2:53 AM 23.0 °F 11.7 °F 15.8 °F 74% 29.61 in 10.0 mi West 11.5 mph - N/A   Clear
3:53 AM 25.0 °F 14.2 °F 14.0 °F 63% 29.68 in 10.0 mi SW 11.5 mph 23.0 mph N/A   Clear
4:53 AM 23.0 °F 10.1 °F 14.0 °F 68% 29.68 in 10.0 mi SW 15.0 mph - N/A   Clear
5:53 AM 24.1 °F 11.5 °F 10.9 °F 57% 29.68 in 10.0 mi SW 15.0 mph - N/A   Clear
6:53 AM 23.0 °F 9.6 °F 10.0 °F 58% 29.70 in 10.0 mi SW 16.1 mph - N/A   Clear
7:53 AM 21.9 °F 8.7 °F 10.9 °F 63% 29.73 in 10.0 mi WSW 15.0 mph - N/A   Clear
8:53 AM 27.0 °F 12.2 °F 12.9 °F 56% 29.70 in 10.0 mi WSW 24.2 mph 31.1 mph N/A   Clear
9:53 AM 30.0 °F 17.5 °F 10.9 °F 45% 29.73 in 10.0 mi WSW 19.6 mph 29.9 mph N/A   Clear
10:53 AM 32.0 °F 19.5 °F 12.0 °F 44% 29.73 in 10.0 mi WSW 21.9 mph 29.9 mph N/A   Scattered Clouds
11:53 AM 35.1 °F 23.5 °F 10.0 °F 35% 29.70 in 10.0 mi West 21.9 mph 27.6 mph N/A   Mostly Cloudy
12:53 PM 35.1 °F 24.1 °F 9.0 °F 34% 29.68 in 10.0 mi WSW 19.6 mph - N/A   Scattered Clouds
1:53 PM 33.1 °F 23.4 °F 6.1 °F 32% 29.68 in 10.0 mi West 13.8 mph 25.3 mph N/A   Clear
2:53 PM 37.0 °F 27.7 °F 5.0 °F 26% 29.69 in 10.0 mi West 16.1 mph 25.3 mph N/A   Mostly Cloudy
3:53 PM 36.0 °F 27.5 °F 3.0 °F 25% 29.70 in 10.0 mi West 12.7 mph 25.3 mph N/A   Mostly Cloudy
4:53 PM 24.1 °F 16.0 °F 5.0 °F 44% 29.78 in 10.0 mi West 6.9 mph - N/A   Partly Cloudy
5:53 PM 24.1 °F 14.4 °F 9.0 °F 53% 29.79 in 10.0 mi West 9.2 mph - N/A   Scattered Clouds
6:53 PM 24.1 °F 13.7 °F 10.0 °F 55% 29.80 in 10.0 mi SW 10.4 mph - N/A   Mostly Cloudy
7:53 PM 21.9 °F 11.7 °F 9.0 °F 58% 29.83 in 10.0 mi WNW 9.2 mph - N/A   Clear
8:53 PM 23.0 °F 12.4 °F 6.1 °F 48% 29.80 in 10.0 mi West 10.4 mph - N/A   Clear
9:53 PM 16.0 °F 6.3 °F 6.1 °F 65% 29.82 in 10.0 mi SW 6.9 mph - N/A   Clear
10:53 PM 21.9 °F 8.7 °F 10.9 °F 63% 29.78 in 10.0 mi SW 15.0 mph - N/A   Clear
11:53 PM 23.0 °F 9.6 °F 10.9 °F 60% 29.75 in 10.0 mi SW 16.1 mph - N/A   Clear